Location: Churchill Northern Studies Centre
(58.7378°N, 93.8201°W)
Time: 22:50:38
(UTC-06:00)

Vanguard 2 Rocket - All Passes

Search period start: 11 December 2017 00:00
Search period end: 21 December 2017 00:00
Orbit: 555 x 3326 km, 32.9° (Epoch: 11 December)

Date Brightness Start Highest point End Pass type
(mag) Time Alt. Az. Time Alt. Az. Time Alt. Az.
11 Dec - 02:12:40 10° WSW 02:22:56 17° SW 02:32:38 10° S night (unlit)
11 Dec - 18:37:05 10° SSE 18:43:03 13° SE 18:49:46 10° ESE visible
11 Dec - 20:43:27 10° SSW 20:55:22 25° SSE 21:09:33 10° ESE visible
11 Dec - 22:55:14 10° SW 23:09:11 29° S 23:24:19 10° SE visible
12 Dec - 01:10:31 10° WSW 01:22:55 21° SSW 01:35:03 10° S night (unlit)
12 Dec - 19:45:16 10° SSW 19:55:23 21° SSE 20:07:44 10° ESE visible
12 Dec - 21:55:37 10° SW 22:08:43 28° S 22:23:55 10° SE visible
13 Dec - 00:09:25 10° WSW 00:22:39 24° SSW 00:36:22 10° SSE visible
13 Dec - 02:29:22 10° WSW 02:35:31 12° SW 02:41:33 10° SSW night (unlit)
13 Dec - 18:48:01 10° S 18:55:46 17° SE 19:05:05 10° ESE visible
13 Dec - 20:56:32 10° SW 21:08:24 27° SSE 21:22:57 10° ESE visible
13 Dec - 23:09:02 10° WSW 23:22:16 26° SSW 23:36:53 10° SE visible
14 Dec - 01:25:37 10° WSW 01:35:41 17° SW 01:45:46 10° S night (unlit)
14 Dec - 17:53:03 10° SSE 17:56:30 11° SE 18:00:17 10° ESE visible
14 Dec - 19:58:02 10° SSW 20:08:22 24° SSE 20:21:25 10° ESE visible
14 Dec - 22:09:15 10° SW 22:21:51 27° S 22:36:43 10° SE visible
15 Dec - 00:23:54 10° WSW 00:35:35 20° SSW 00:47:53 10° S visible
15 Dec - 19:00:13 10° S 19:08:39 19° SSE 19:19:17 10° ESE visible
15 Dec - 21:10:01 10° SW 21:21:33 27° S 21:35:59 10° SE visible
15 Dec - 23:23:13 10° WSW 23:35:19 23° SSW 23:48:52 10° SSE visible
16 Dec - 01:42:48 10° WSW 01:48:22 12° SW 01:54:01 10° SSW night (unlit)
16 Dec - 18:03:31 10° S 18:09:18 14° SE 18:16:13 10° ESE visible
16 Dec - 20:11:17 10° SSW 20:21:29 25° SSE 20:34:43 10° ESE visible
16 Dec - 22:23:14 10° WSW 22:35:01 25° S 22:49:04 10° SSE visible
17 Dec - 00:39:19 10° WSW 00:48:27 16° SW 00:58:09 10° S visible
17 Dec - 19:13:08 10° SSW 19:21:43 21° SSE 19:32:56 10° ESE visible
17 Dec - 21:23:49 10° SW 21:34:47 25° S 21:48:37 10° SE visible
17 Dec - 23:37:58 10° WSW 23:48:22 19° SSW 00:00:02 10° S visible
18 Dec - 18:15:43 10° S 18:22:17 17° SSE 18:30:35 10° ESE visible
18 Dec - 20:24:55 10° SW 20:34:44 24° S 20:47:37 10° SE visible
18 Dec - 22:37:38 10° WSW 22:48:12 21° SSW 23:00:47 10° SSE visible
19 Dec - 00:57:44 10° SW 01:01:18 11° SW 01:04:57 10° SSW night (unlit)
19 Dec - 17:20:02 10° SSE 17:23:12 11° SE 17:26:45 10° SE visible
19 Dec - 19:26:31 10° SSW 19:34:56 22° SSE 19:46:10 10° SE visible
19 Dec - 21:38:00 10° SW 21:48:04 23° S 22:00:45 10° SSE visible
19 Dec - 23:53:51 10° WSW 00:01:24 14° SSW 00:09:41 10° S visible
20 Dec - 18:28:43 10° SSW 18:35:28 18° SSE 18:44:16 10° ESE visible
20 Dec - 20:38:54 10° SW 20:48:05 22° S 21:00:05 10° SE visible
20 Dec - 22:52:43 10° WSW 23:01:24 17° SSW 23:11:31 10° S visible
